Nashua, NH

11:28 AM EDT on August 16, 2017 (GMT -0400)
Boire

Weather History for KASH - August, 2014

Change the Weather History Date:

Wednesday, August 6, 2014

  Actual Average Record
Temperature  
Mean Temperature 74 °F -  
Max Temperature 81 °F 81 °F 93 °F (1996)
Min Temperature 65 °F 58 °F 40 °F (1951)
Cooling Degree Days 8    
Growing Degree Days 24 (Base 50)    
Moisture  
Dew Point 60 °F    
Average Humidity 68    
Maximum Humidity 100    
Minimum Humidity 31    
Precipitation  
Precipitation 0.02 in - - ()
Sea Level Pressure  
Sea Level Pressure 30.56 in    
Wind  
Wind Speed 5 mph (NW)    
Max Wind Speed 14 mph    
Max Gust Speed 21 mph    
Visibility 10 miles    
Events Rain    
Averages and records for this station are not official NWS values.
T = Trace of Precipitation, MM = Missing Value Source: NWS Daily Summary

Daily Weather History Graph

Daily Weather History Graph

Search for Another Location

Airport or City:

Trip Planner

Search our weather history database for the weather conditions in past years. The results will help you decide how hot, cold, wet, or windy it might be!

Date:

Astronomy

Aug. 06, 2014 Rise Set
Actual Time 5:42 AM EDT 8:00 PM EDT
Civil Twilight 5:11 AM EDT 8:31 PM EDT
Nautical Twilight 4:32 AM EDT 9:10 PM EDT
Astronomical Twilight 3:48 AM EDT 9:53 PM EDT
Moon 4:15 PM EDT (8/6) 1:14 AM EDT (8/6)
Length of Visible Light 15h 20m
Length of Day
14h 17m
Waxing Gibbous, 77% of the Moon is Illuminated
Aug 6
Waxing Gibbous
Aug 10
Full
Aug 17
Last Quarter
Aug 25
New
Sep 2
First Quarter

Hourly Weather History & Observations

Time (EDT) Temp. Heat Index Dew Point Humidity Pressure Visibility Wind Dir Wind Speed Gust Speed Precip Events Conditions
12:51 AM 68.0 °F - 65.8 °F 93% 30.61 in 10.0 mi Calm Calm - 0.00 in   Clear
1:51 AM 66.9 °F - 66.9 °F 100% 30.59 in 10.0 mi Calm Calm - 0.01 in   Clear
2:51 AM 66.9 °F - 65.8 °F 96% 30.59 in 9.0 mi NW 4.6 mph - 0.00 in Rain Light Rain
3:51 AM 68.0 °F - 65.8 °F 93% 30.58 in 10.0 mi NW 5.8 mph - 0.01 in   Clear
5:51 AM 66.9 °F - 65.8 °F 96% 30.56 in 10.0 mi Calm Calm - N/A   Clear
6:51 AM 66.9 °F - 64.9 °F 93% 30.58 in 10.0 mi NW 5.8 mph - N/A   Mostly Cloudy
8:51 AM 70.9 °F - 64.9 °F 81% 30.58 in 10.0 mi NW 8.1 mph - N/A   Clear
9:51 AM 73.9 °F - 63.0 °F 68% 30.57 in 10.0 mi NNW 11.5 mph - N/A   Partly Cloudy
11:51 AM 77.0 °F - 61.0 °F 58% 30.56 in 10.0 mi North 9.2 mph - N/A   Scattered Clouds
12:51 PM 77.9 °F - 59.9 °F 54% 30.55 in 10.0 mi North 9.2 mph - N/A   Scattered Clouds
1:51 PM 81.0 °F 80.8 °F 55.9 °F 42% 30.53 in 10.0 mi NW 13.8 mph - N/A   Scattered Clouds
2:51 PM 81.0 °F 80.5 °F 54.0 °F 39% 30.52 in 10.0 mi NNW 13.8 mph 20.7 mph N/A   Mostly Cloudy
4:51 PM 81.0 °F - 47.8 °F 31% 30.51 in 10.0 mi NW 12.7 mph 17.3 mph N/A   Partly Cloudy
5:51 PM 81.0 °F - 50.9 °F 35% 30.52 in 10.0 mi NW 11.5 mph - N/A   Clear
7:51 PM 74.8 °F - 55.9 °F 52% 30.55 in 10.0 mi NNW 6.9 mph - N/A   Clear
8:51 PM 72.0 °F - 55.9 °F 57% 30.57 in 10.0 mi NW 6.9 mph - N/A   Partly Cloudy
9:51 PM 68.9 °F - 56.8 °F 65% 30.59 in 10.0 mi WNW 5.8 mph - N/A   Clear
10:51 PM 66.9 °F - 56.8 °F 70% 30.58 in 10.0 mi WNW 6.9 mph - N/A   Clear
11:51 PM 65.8 °F - 55.9 °F 70% 30.59 in 10.0 mi NNW 5.8 mph - N/A   Clear